This demonstration page uses our WeatherBlox Daily Observations layout. Learn more.

Left ArrowRight Arrow

Hourly Observations for December 7, 2022

Temp ( °F °C ) Dew Point ( °F °C ) Humidity (%) Winds ( mph kmh ) Pressure ( in mb ) Visibility ( mi km ) Precip ( " mm )
12:15 am 00:15 Cloudy with Fog 70 21 70 21 100 100 SSE 14 22 30.07 1018 0 0 0.00 0.00
12:35 am 00:35 Cloudy with Fog 70 21 70 21 100 100 SSE 15 24 30.07 1018 0 0 0.00 0.00
12:55 am 00:55 Cloudy with Fog 70 21 70 21 100 100 S 9 15 30.08 1019 0 0 0.00 0.00
1:15 am 01:15 Cloudy with Fog 70 21 70 21 100 100 S 14 22 30.08 1019 0 0 0.00 0.00
1:35 am 01:35 Cloudy with Fog 70 21 70 21 100 100 S 12 19 30.08 1019 0 0 0.00 0.00
1:55 am 01:55 Cloudy with Fog 70 21 70 21 100 100 S 13 20 30.10 1019 0 0 0.00 0.00
2:15 am 02:15 Cloudy with Fog 70 21 70 21 100 100 S 9 15 30.10 1019 0 0 0.00 0.00
2:35 am 02:35 Cloudy with Fog 70 21 70 21 100 100 S 9 15 30.10 1019 0 0 0.00 0.00
2:55 am 02:55 Cloudy with Fog 72 22 70 21 94 94 S 8 13 30.10 1019 0 0 0.00 0.00
3:15 am 03:15 Cloudy with Mist and Fog 72 22 72 22 100 100 VRB 6 9 30.11 1020 1 2 0.00 0.00
3:35 am 03:35 Cloudy with Mist and Fog 72 22 72 22 100 100 SSE 9 15 30.11 1020 1 2 0.00 0.00
3:55 am 03:55 Cloudy with Mist and Fog 72 22 72 22 100 100 SSE 9 15 30.11 1020 1 2 0.00 0.00
4:15 am 04:15 Cloudy with Mist and Fog 72 22 72 22 100 100 VRB 7 11 30.11 1020 2 3 0.00 0.00
4:35 am 04:35 Cloudy with Mist and Fog 72 22 72 22 100 100 Calm 30.12 1020 1 2 0.00 0.00
4:55 am 04:55 Cloudy with Mist and Fog 72 22 72 22 100 100 S 6 9 30.12 1020 2 2 0.00 0.00
5:15 am 05:15 Cloudy with Mist and Fog 72 22 72 22 100 100 Calm 30.12 1020 4 6 0.00 0.00
5:35 am 05:35 Cloudy with Mist and Fog 72 22 72 22 100 100 SE 3 6 30.13 1020 1 1 0.00 0.00
5:55 am 05:55 Cloudy with Mist and Fog 72 22 72 22 100 100 SSE 6 9 30.13 1020 1 1 0.00 0.00
6:15 am 06:15 Cloudy with Fog 72 22 72 22 100 100 SSE 8 13 30.13 1020 0 0 0.00 0.00
6:35 am 06:35 Cloudy with Fog 72 22 72 22 100 100 SE 7 11 30.14 1021 0 0 0.00 0.00
6:55 am 06:55 Cloudy with Mist and Fog 72 22 72 22 100 100 SSE 9 15 30.14 1021 1 1 0.00 0.00
7:15 am 07:15 Cloudy with Mist and Fog 72 22 72 22 100 100 VRB 6 9 30.15 1021 1 2 0.00 0.00
7:35 am 07:35 Cloudy with Fog 72 22 72 22 100 100 SE 8 13 30.15 1021 0 0 0.00 0.00
7:55 am 07:55 Cloudy with Fog 72 22 72 22 100 100 SSE 7 11 30.17 1022 0 0 0.03 0.76
8:15 am 08:15 Cloudy with Fog 72 22 72 22 100 100 SSE 8 13 30.17 1022 0 0 0.00 0.00
8:35 am 08:35 Cloudy with Fog 72 22 72 22 100 100 SE 7 11 30.18 1022 0 0 0.00 0.00
8:55 am 08:55 Cloudy with Mist and Fog 72 22 72 22 100 100 S 7 11 30.18 1022 1 2 0.00 0.00
9:15 am 09:15 Mostly Cloudy with Mist and Fog 72 22 72 22 100 100 S 8 13 30.19 1023 3 5 0.00 0.00
9:35 am 09:35 Cloudy with Mist and Fog 72 22 72 22 100 100 Calm 30.20 1023 4 6 0.00 0.00
9:55 am 09:55 Cloudy with Mist and Fog 73 23 72 22 94 94 VRB 5 7 30.21 1023 6 10 0.00 0.00
10:15 am 10:15 Cloudy with Mist and Fog 73 23 72 22 94 94 VRB 5 7 30.21 1023 6 10 0.00 0.00
10:35 am 10:35 Cloudy 75 24 72 22 89 89 S 9 15 30.21 1023 7 11 0.00 0.00
10:55 am 10:55 Mostly Cloudy 73 23 72 22 94 94 S 12 19 30.21 1023 7 11 0.00 0.00
11:15 am 11:15 Mostly Cloudy 75 24 72 22 89 89 VRB 6 9 30.20 1023 9 14 0.00 0.00
11:35 am 11:35 Mostly Cloudy 75 24 70 21 83 83 S 8 13 30.20 1023 9 14 0.00 0.00
11:55 am 11:55 Partly Cloudy 77 25 70 21 79 79 S 8 13 30.18 1022 9 14 0.00 0.00
12:15 pm 12:15 Partly Cloudy 79 26 70 21 74 74 SSE 9 15 30.17 1022 10 16 0.00 0.00
12:35 pm 12:35 Mostly Cloudy 79 26 68 20 70 70 SSW 8 13 30.16 1021 10 16 0.00 0.00
12:55 pm 12:55 Mostly Cloudy 79 26 68 20 70 70 VRB 7 11 30.16 1021 10 16 0.00 0.00
1:15 pm 13:15 Mostly Cloudy 79 26 68 20 70 70 VRB 7 11 30.15 1021 10 16 0.00 0.00
1:35 pm 13:35 Mostly Cloudy 81 27 66 19 62 62 VRB 7 11 30.14 1021 10 16 0.00 0.00
1:55 pm 13:55 Partly Cloudy 81 27 68 20 66 66 S 12 19 30.13 1020 10 16 0.00 0.00
2:15 pm 14:15 Mostly Cloudy 79 26 68 20 70 70 VRB 6 9 30.13 1020 10 16 0.00 0.00
2:35 pm 14:35 Cloudy 81 27 66 19 62 62 SSW 13 20 30.13 1020 10 16 0.00 0.00
2:55 pm 14:55 Cloudy 81 27 66 19 62 62 SSE 18 30 30.12 1020 10 16 0.00 0.00
3:15 pm 15:15 Mostly Cloudy 81 27 64 18 58 58 S 13 20 30.13 1020 10 16 0.00 0.00
3:35 pm 15:35 Partly Cloudy 81 27 63 17 54 54 S 16 26 30.12 1020 10 16 0.00 0.00
3:55 pm 15:55 Sunny 81 27 64 18 58 58 S 10 17 30.13 1020 10 16 0.00 0.00
4:15 pm 16:15 Sunny 81 27 66 19 62 62 S 18 30 30.12 1020 10 16 0.00 0.00
4:35 pm 16:35 Sunny 79 26 68 20 70 70 SSE 16 26 30.13 1020 10 16 0.00 0.00
4:55 pm 16:55 Partly Cloudy 77 25 68 20 74 74 S 15 24 30.13 1020 10 16 0.00 0.00
5:15 pm 17:15 Mostly Sunny 77 25 68 20 74 74 SSE 10 17 30.14 1021 10 16 0.00 0.00
5:35 pm 17:35 Clear 77 25 68 20 74 74 S 21 33 30.13 1020 10 16 0.00 0.00
5:55 pm 17:55 Clear 75 24 68 20 78 78 SSE 15 24 30.14 1021 9 14 0.00 0.00
6:15 pm 18:15 Partly Cloudy 75 24 68 20 78 78 S 14 22 30.15 1021 10 16 0.00 0.00
6:35 pm 18:35 Partly Cloudy 75 24 70 21 83 83 S 15 24 30.15 1021 10 16 0.00 0.00
6:55 pm 18:55 Partly Cloudy 73 23 70 21 89 89 S 13 20 30.16 1021 10 16 0.00 0.00
7:15 pm 19:15 Mostly Cloudy 73 23 70 21 89 89 S 13 20 30.16 1021 9 14 0.00 0.00
7:35 pm 19:35 Mostly Cloudy 73 23 70 21 89 89 SSE 12 19 30.17 1022 8 13 0.00 0.00
7:55 pm 19:55 Cloudy with Mist and Fog 72 22 72 22 100 100 SE 13 20 30.17 1022 6 10 0.00 0.00
8:15 pm 20:15 Cloudy with Mist and Fog 72 22 70 21 94 94 SSE 10 17 30.18 1022 6 10 0.00 0.00
8:35 pm 20:35 Cloudy 72 22 70 21 94 94 SSE 13 20 30.18 1022 7 11 0.00 0.00
8:55 pm 20:55 Cloudy with Mist and Fog 72 22 70 21 94 94 SSE 10 17 30.19 1023 6 10 0.00 0.00
9:15 pm 21:15 Cloudy with Mist and Fog 72 22 70 21 94 94 VRB 7 11 30.19 1023 4 6 0.00 0.00
9:35 pm 21:35 Cloudy with Mist and Fog 72 22 70 21 94 94 SSE 12 19 30.19 1023 2 3 0.00 0.00
9:55 pm 21:55 Cloudy with Mist and Fog 72 22 70 21 94 94 SSE 14 22 30.19 1023 3 5 0.00 0.00
10:15 pm 22:15 Cloudy with Mist and Fog 72 22 70 21 94 94 SSE 10 17 30.19 1023 3 5 0.00 0.00
10:35 pm 22:35 Cloudy with Mist and Fog 72 22 70 21 94 94 SSE 12 19 30.19 1023 4 6 0.00 0.00
10:55 pm 22:55 Cloudy with Mist and Fog 72 22 70 21 94 94 SSE 13 20 30.19 1023 4 6 0.00 0.00
11:15 pm 23:15 Cloudy with Mist and Fog 72 22 70 21 94 94 SSE 14 22 30.18 1022 4 6 0.00 0.00
11:35 pm 23:35 Cloudy with Mist and Fog 72 22 72 22 100 100 SSE 12 19 30.19 1023 6 10 0.00 0.00
11:55 pm 23:55 Cloudy with Mist and Fog 72 22 70 21 94 94 SSE 12 19 30.18 1022 6 10 0.00 0.00

Powered by AerisWeather